User: anonymous   Login
Location: Unspecified
(0.0000°N, 0.0000°E)
Time: 01:31:38
(UTC+00:00)
Language:

OPTUS D3 - Orbit

View from above orbital plane
View from above orbital plane
View from above satellite
View from above satellite

Ground track
Ground track

The orbit data is extracted from the following two-line orbital elements,

1 35756U 09044B   16238.69646267  .00000000  00000-0  10000-3 0  9993
2 35756   0.0399 353.0742 0002563 163.0726 224.9107  1.00266195 25714
Epoch (UTC): 25 August 2016 16:42:54
Eccentricity: 0.0002563
inclination: 0.0399°
perigee height: 35777 km
apogee height: 35798 km
right ascension of ascending node: 353.0742°
argument of perigee: 163.0726°
revolutions per day: 1.00266195
mean anomaly at epoch: 224.9107°
orbit number at epoch: 2571

The dashed part of the orbit path shows where the satellite is in the earth's shadow,  

DLR